This demonstration page uses our WeatherBlox Daily Observations layout. Learn more.

Left ArrowRight Arrow

Hourly Observations for November 28, 2018

Temp ( °F °C ) Dew Point ( °F °C ) Humidity (%) Winds ( mph kmh ) Pressure ( in mb ) Visibility ( mi km ) Precip ( " mm )
12:53 am 00:53 Clear 39 3.9 32 undefined 76 76 WSW 9 15 29.56 1001 10 16 N/A
1:53 am 01:53 Partly Cloudy 38 3.3 31 -0.6 76 76 SW 14 22 29.56 1001 10 16 N/A
2:53 am 02:53 Clear 36 2.2 30 -1.1 79 79 N N/A 29.58 1002 10 16 N/A
3:53 am 03:53 Clear 36 2.2 30 -1.1 79 79 WSW 9 15 29.59 1002 10 16 N/A
4:53 am 04:53 Clear 34 1.1 29 -1.7 82 82 WSW 10 17 29.60 1003 10 16 N/A
5:53 am 05:53 Clear 36 2.2 29 -1.7 76 76 SSW 15 24 29.61 1003 10 16 N/A
6:53 am 06:53 Mostly Clear 34 1.1 28 -2.2 79 79 WSW 12 19 29.64 1004 10 16 N/A
7:53 am 07:53 Mostly Cloudy 33 0.6 28 -2.2 82 82 WSW 10 17 29.65 1004 10 16 N/A
8:53 am 08:53 Sunny 34 1.1 28 -2.2 79 79 WSW 8 13 29.66 1004 10 16 N/A
9:53 am 09:53 Sunny 39 3.9 29 -1.7 67 67 SW 12 19 29.66 1004 10 16 N/A
10:53 am 10:53 Sunny 44 6.7 29 -1.7 55 55 SW 15 24 29.65 1004 10 16 N/A
11:53 am 11:53 Sunny 50 10 28 -2.2 43 43 W 13 20 29.64 1004 10 16 N/A
12:53 pm 12:53 Sunny 52 11.1 28 -2.2 40 40 W 14 22 29.62 1003 10 16 N/A
1:53 pm 13:53 Sunny 53 11.7 26 -3.3 35 35 WNW 15 24 29.61 1003 10 16 N/A
2:53 pm 14:53 Mostly Sunny 51 10.6 26 -3.3 38 38 WNW 7 11 29.62 1003 10 16 N/A
3:53 pm 15:53 Sunny 48 8.9 27 -2.8 44 44 W 9 15 29.62 1003 10 16 N/A
4:53 pm 16:53 Mostly Cloudy 38 3.3 26 -3.3 62 62 SW 10 17 29.65 1004 10 16 N/A
5:53 pm 17:53 Clear 36 2.2 26 -3.3 67 67 W 7 11 29.67 1005 10 16 N/A
6:53 pm 18:53 Clear 33 0.6 25 -3.9 72 72 SW 8 13 29.68 1005 10 16 N/A
7:53 pm 19:53 Partly Cloudy 35 1.7 26 -3.3 70 70 SW 8 13 29.70 1006 10 16 N/A
8:53 pm 20:53 Clear 31 -0.6 25 -3.9 79 79 WSW 6 9 29.70 1006 10 16 N/A
9:53 pm 21:53 Clear 31 -0.6 25 -3.9 79 79 WSW 12 19 29.70 1006 10 16 N/A
10:53 pm 22:53 Clear 30 -1.1 25 -3.9 82 82 W 6 9 29.70 1006 10 16 N/A
11:53 pm 23:53 Clear 28 -2.2 25 -3.9 88 88 W 9 15 29.70 1006 10 16 N/A

Powered by AerisWeather